This is the latest recevied weather packets stored in our database for station/object VY2CRA-4. If no packets are shown the sender has not sent any weather packets the latest 10 day(s).
| Time | Temp. | Humidity | Pressure | Rain* | Wind** | Luminosity | Snow |
|---|---|---|---|---|---|---|---|
| 1787950981 | 31.11° C | 23% | 1012.7 hPa | 0 mm | - | - | - |
| 1787949779 | 31.67° C | 20% | 1012.7 hPa | 0 mm | - | - | - |
| 1787948579 | 32.78° C | 17% | 1012.6 hPa | 0 mm | - | - | - |
| 1787947378 | 33.33° C | 15% | 1012.7 hPa | 0 mm | - | - | - |
| 1787946177 | 34.44° C | 11% | 1012.9 hPa | 0 mm | - | - | - |
| 1787944976 | 35° C | 9% | 1013.2 hPa | 0 mm | - | - | - |
| 1787943775 | 34.44° C | 9% | 1013.3 hPa | 0 mm | - | - | - |
| 1787942574 | 34.44° C | 9% | 1013.5 hPa | 0 mm | - | - | - |
| 1787940173 | 35° C | 8% | 1013.7 hPa | 0 mm | - | - | - |
| 1787938971 | 35° C | 9% | 1014 hPa | 0 mm | - | - | - |
| 1787937770 | 34.44° C | 10% | 1014.2 hPa | 0 mm | - | - | - |
| 1787936569 | 33.89° C | 12% | 1014.3 hPa | 0 mm | - | - | - |
| 1787935368 | 33.33° C | 13% | 1014.6 hPa | 0 mm | - | - | - |
| 1787931765 | 35° C | 9% | 1014.9 hPa | 0 mm | - | - | - |
| 1787928163 | 35° C | 8% | 1015.3 hPa | 0 mm | - | - | - |
| 1787926962 | 35° C | 8% | 1015.5 hPa | 0 mm | - | - | - |
| 1787925761 | 35° C | 10% | 1015.5 hPa | 0 mm | - | - | - |
| 1787924558 | 34.44° C | 12% | 1015.6 hPa | 0 mm | - | - | - |
| 1787923359 | 33.89° C | 13% | 1015.5 hPa | 0 mm | - | - | - |
| 1787922156 | 33.33° C | 14% | 1015.6 hPa | 0 mm | - | - | - |
| 1787920956 | 33.33° C | 15% | 1015.5 hPa | 0 mm | - | - | - |
| 1787919756 | 32.78° C | 16% | 1015.6 hPa | 0 mm | - | - | - |
| 1787916153 | 28.33° C | 33% | 1015.8 hPa | 0 mm | - | - | - |
| 1787914952 | 25.56° C | 43% | 1015.6 hPa | 0 mm | - | - | - |
| 1787913751 | 22.22° C | 52% | 1015.6 hPa | 0 mm | - | - | - |
* Rain since midnight (hover to see other rain measurements)
** Current wind speed in m/s (hover to see current wind gust speed)